Time,TemperatureF,DewpointF,PressureIn,WindDirection,WindDirectionDegrees,WindSpeedMPH,WindSpeedGustMPH,Humidity,HourlyPrecipIn,Conditions,Clouds,dailyrainin,SolarRadiationWatts/m^2,SoftwareType,DateUTC
2013-05-20 00:01:00,70.0,69.1,30.08,SSE,162,1.0,1.0,97,0.00,,---,0.01,0.00,VWS V14.01,2013-05-20 04:01:00,
2013-05-20 00:02:00,70.0,69.1,30.08,SSE,162,0.0,2.0,97,0.00,,---,0.01,0.00,VWS V14.01,2013-05-20 04:02:00,
2013-05-20 00:06:00,70.1,69.2,30.07,SSE,162,0.0,1.0,97,0.00,,---,0.01,0.00,VWS V14.01,2013-05-20 04:06:00,
2013-05-20 00:11:00,70.2,69.3,30.07,SSE,163,1.0,4.0,97,0.00,,---,0.00,0.00,VWS V14.01,2013-05-20 04:11:00,
2013-05-20 00:16:00,70.3,69.4,30.07,SSE,163,0.0,4.0,97,0.00,,---,0.00,0.00,VWS V14.01,2013-05-20 04:16:00,
2013-05-20 00:21:00,70.4,69.5,30.07,South,181,4.0,5.0,97,0.00,,---,0.00,0.00,VWS V14.01,2013-05-20 04:21:00,
2013-05-20 00:26:00,70.4,69.5,30.06,SSW,213,0.0,0.0,97,0.00,,---,0.00,0.00,VWS V14.01,2013-05-20 04:26:00,
2013-05-20 00:31:00,70.4,69.5,30.07,SSW,213,0.0,3.0,97,0.00,,---,0.00,0.00,VWS V14.01,2013-05-20 04:31:00,
2013-05-20 00:36:00,70.3,69.4,30.07,SSW,213,3.0,4.0,97,0.00,,---,0.00,0.00,VWS V14.01,2013-05-20 04:36:00,
2013-05-20 00:42:00,70.3,69.4,30.07,SSW,213,0.0,1.0,97,0.00,,---,0.00,0.00,VWS V14.01,2013-05-20 04:42:00,
2013-05-20 00:47:00,70.3,69.4,30.07,SSW,213,0.0,2.0,97,0.00,,---,0.00,0.00,VWS V14.01,2013-05-20 04:47:00,
2013-05-20 00:52:00,70.2,69.3,30.07,SSW,213,0.0,2.0,97,0.00,,---,0.00,0.00,VWS V14.01,2013-05-20 04:52:00,
2013-05-20 00:57:00,70.2,69.3,30.07,SSW,213,0.0,0.0,97,0.00,,---,0.00,0.00,VWS V14.01,2013-05-20 04:57:00,
2013-05-20 01:02:00,70.2,69.3,30.07,SSW,213,0.0,0.0,97,0.00,,---,0.00,0.00,VWS V14.01,2013-05-20 05:02:00,
2013-05-20 01:07:00,70.2,69.3,30.07,SSW,213,0.0,1.0,97,0.00,,---,0.00,0.00,VWS V14.01,2013-05-20 05:07:00,
2013-05-20 01:12:00,70.2,69.3,30.07,SSW,213,1.0,1.0,97,0.00,,---,0.00,0.00,VWS V14.01,2013-05-20 05:12:00,
2013-05-20 01:17:00,70.3,69.4,30.07,SSW,213,0.0,0.0,97,0.00,,---,0.00,0.00,VWS V14.01,2013-05-20 05:17:00,
2013-05-20 01:22:00,70.3,69.4,30.07,SSW,213,0.0,0.0,97,0.00,,---,0.00,0.00,VWS V14.01,2013-05-20 05:22:00,
2013-05-20 01:27:00,70.4,69.5,30.07,SSW,213,0.0,0.0,97,0.00,,---,0.00,0.00,VWS V14.01,2013-05-20 05:27:00,
2013-05-20 01:32:00,70.4,69.5,30.07,SSW,213,0.0,0.0,97,0.00,,---,0.00,0.00,VWS V14.01,2013-05-20 05:32:00,
2013-05-20 01:37:00,70.4,69.5,30.07,SSW,213,0.0,0.0,97,0.00,,---,0.00,0.00,VWS V14.01,2013-05-20 05:37:00,
2013-05-20 01:42:00,70.5,69.6,30.07,SSW,213,0.0,0.0,97,0.00,,---,0.00,0.00,VWS V14.01,2013-05-20 05:42:00,
2013-05-20 01:47:00,70.6,69.7,30.06,SSW,213,0.0,0.0,97,0.00,,---,0.00,0.00,VWS V14.01,2013-05-20 05:47:00,
2013-05-20 01:52:00,70.5,69.6,30.06,SSW,213,0.0,2.0,97,0.00,,---,0.00,0.00,VWS V14.01,2013-05-20 05:52:00,
2013-05-20 01:58:00,70.5,69.6,30.06,SSW,213,0.0,0.0,97,0.00,,---,0.00,0.00,VWS V14.01,2013-05-20 05:58:00,
2013-05-20 02:03:00,70.6,69.7,30.05,SSW,213,0.0,0.0,97,0.00,,---,0.00,0.00,VWS V14.01,2013-05-20 06:03:00,
2013-05-20 02:08:00,70.6,69.7,30.05,SSW,213,0.0,0.0,97,0.00,,---,0.00,0.00,VWS V14.01,2013-05-20 06:08:00,
2013-05-20 02:13:00,70.7,69.8,30.05,SSW,213,0.0,1.0,97,0.00,,---,0.00,0.00,VWS V14.01,2013-05-20 06:13:00,
2013-05-20 02:18:00,70.6,69.4,30.05,SSW,213,0.0,0.0,96,0.00,,---,0.00,0.00,VWS V14.01,2013-05-20 06:18:00,
2013-05-20 02:23:00,70.7,69.5,30.05,SSW,213,0.0,0.0,96,0.00,,---,0.00,0.00,VWS V14.01,2013-05-20 06:23:00,
2013-05-20 02:28:00,70.7,69.5,30.05,SSW,213,0.0,1.0,96,0.00,,---,0.00,0.00,VWS V14.01,2013-05-20 06:28:00,
2013-05-20 02:33:00,70.7,69.5,30.05,SSW,213,0.0,4.0,96,0.00,,---,0.00,0.00,VWS V14.01,2013-05-20 06:33:00,
2013-05-20 02:38:00,70.7,69.5,30.05,SSW,213,0.0,3.0,96,0.00,,---,0.00,0.00,VWS V14.01,2013-05-20 06:38:00,
2013-05-20 02:43:00,70.7,69.5,30.05,SSW,213,0.0,0.0,96,0.00,,---,0.00,0.00,VWS V14.01,2013-05-20 06:43:00,
2013-05-20 02:48:00,70.7,69.5,30.05,SSW,213,0.0,1.0,96,0.00,,---,0.00,0.00,VWS V14.01,2013-05-20 06:48:00,
2013-05-20 02:53:00,70.6,69.4,30.05,SSW,213,0.0,0.0,96,0.00,,---,0.00,0.00,VWS V14.01,2013-05-20 06:53:00,
2013-05-20 02:58:00,70.6,69.4,30.05,SSW,213,0.0,0.0,96,0.00,,---,0.00,0.00,VWS V14.01,2013-05-20 06:58:00,
2013-05-20 03:03:00,70.4,69.2,30.05,SSW,213,0.0,0.0,96,0.00,,---,0.00,0.00,VWS V14.01,2013-05-20 07:03:00,
2013-05-20 03:09:00,70.3,69.1,30.05,SSW,213,0.0,0.0,96,0.00,,---,0.00,0.00,VWS V14.01,2013-05-20 07:09:00,
2013-05-20 03:14:00,70.2,69.0,30.05,SSW,213,0.0,0.0,96,0.00,,---,0.00,0.00,VWS V14.01,2013-05-20 07:14:00,
2013-05-20 03:19:00,70.1,68.9,30.04,SSW,213,0.0,0.0,96,0.00,,---,0.00,0.00,VWS V14.01,2013-05-20 07:19:00,
2013-05-20 03:24:00,69.9,68.7,30.04,SSW,213,0.0,0.0,96,0.00,,---,0.00,0.00,VWS V14.01,2013-05-20 07:24:00,
2013-05-20 03:29:00,69.8,68.6,30.04,SSW,213,0.0,0.0,96,0.00,,---,0.00,0.00,VWS V14.01,2013-05-20 07:29:00,
2013-05-20 03:34:00,69.6,68.7,30.04,SSW,213,0.0,0.0,97,0.00,,---,0.00,0.00,VWS V14.01,2013-05-20 07:34:00,
2013-05-20 03:39:00,69.6,68.4,30.04,SSW,213,0.0,0.0,96,0.00,,---,0.00,0.00,VWS V14.01,2013-05-20 07:39:00,
2013-05-20 03:44:00,69.4,68.2,30.04,SSW,213,0.0,0.0,96,0.00,,---,0.00,0.00,VWS V14.01,2013-05-20 07:44:00,
2013-05-20 03:49:00,69.4,68.5,30.05,SSW,213,0.0,0.0,97,0.00,,---,0.00,0.00,VWS V14.01,2013-05-20 07:49:00,
2013-05-20 03:54:00,69.4,68.5,30.05,SSW,213,0.0,0.0,97,0.00,,---,0.00,0.00,VWS V14.01,2013-05-20 07:54:00,
2013-05-20 03:59:00,69.4,68.5,30.05,SSW,213,0.0,0.0,97,0.00,,---,0.00,0.00,VWS V14.01,2013-05-20 07:59:00,
2013-05-20 04:04:00,69.6,68.7,30.05,SSW,213,0.0,0.0,97,0.00,,---,0.00,0.00,VWS V14.01,2013-05-20 08:04:00,
2013-05-20 04:09:00,69.7,68.8,30.04,SSW,213,0.0,1.0,97,0.00,,---,0.00,0.00,VWS V14.01,2013-05-20 08:09:00,
2013-05-20 04:14:00,69.8,68.9,30.05,SSW,213,0.0,0.0,97,0.01,,---,0.01,0.00,VWS V14.01,2013-05-20 08:14:00,
2013-05-20 04:19:00,69.9,69.0,30.05,SSW,213,0.0,1.0,97,0.01,,---,0.01,0.00,VWS V14.01,2013-05-20 08:19:00,
2013-05-20 04:25:00,69.9,69.0,30.04,SSW,213,0.0,1.0,97,0.01,,---,0.01,0.00,VWS V14.01,2013-05-20 08:25:00,
2013-05-20 04:30:00,69.9,69.0,30.04,SSW,213,0.0,0.0,97,0.01,,---,0.01,0.00,VWS V14.01,2013-05-20 08:30:00,
2013-05-20 04:35:00,69.9,69.0,30.04,SSW,213,0.0,0.0,97,0.01,,---,0.01,0.00,VWS V14.01,2013-05-20 08:35:00,
2013-05-20 04:40:00,69.9,69.0,30.04,SSW,213,0.0,0.0,97,0.01,,---,0.01,0.00,VWS V14.01,2013-05-20 08:40:00,
2013-05-20 04:45:00,69.8,68.9,30.03,SSW,213,0.0,1.0,97,0.01,,---,0.01,0.00,VWS V14.01,2013-05-20 08:45:00,
2013-05-20 04:50:00,69.7,68.8,30.04,SSW,213,0.0,0.0,97,0.01,,---,0.01,0.00,VWS V14.01,2013-05-20 08:50:00,
2013-05-20 04:55:00,69.5,68.6,30.05,SSW,213,0.0,0.0,97,0.01,,---,0.01,0.00,VWS V14.01,2013-05-20 08:55:00,
2013-05-20 05:00:00,69.5,68.6,30.05,SSW,213,0.0,0.0,97,0.01,,---,0.01,0.00,VWS V14.01,2013-05-20 09:00:00,
2013-05-20 05:05:00,69.4,68.5,30.05,SSW,213,0.0,0.0,97,0.01,,---,0.01,0.00,VWS V14.01,2013-05-20 09:05:00,
2013-05-20 05:10:00,69.3,68.4,30.04,SSW,213,0.0,0.0,97,0.01,,---,0.01,0.00,VWS V14.01,2013-05-20 09:10:00,
2013-05-20 05:15:00,69.2,68.3,30.05,SSW,213,0.0,0.0,97,0.00,,---,0.01,0.00,VWS V14.01,2013-05-20 09:15:00,
2013-05-20 05:20:00,69.1,68.2,30.04,SSW,213,0.0,0.0,97,0.00,,---,0.01,0.00,VWS V14.01,2013-05-20 09:20:00,
2013-05-20 05:25:00,69.0,68.1,30.05,SSW,213,0.0,0.0,97,0.00,,---,0.01,0.00,VWS V14.01,2013-05-20 09:25:00,
2013-05-20 05:30:00,69.2,68.3,30.05,SSW,213,0.0,0.0,97,0.00,,---,0.01,0.00,VWS V14.01,2013-05-20 09:30:00,
2013-05-20 05:36:00,69.4,68.5,30.05,SSW,213,0.0,0.0,97,0.00,,---,0.01,0.00,VWS V14.01,2013-05-20 09:36:00,
2013-05-20 05:40:00,69.6,68.7,30.06,SSW,213,0.0,1.0,97,0.00,,---,0.01,0.00,VWS V14.01,2013-05-20 09:40:00,
2013-05-20 05:41:00,69.5,68.6,30.05,SSW,213,2.0,2.0,97,0.00,,---,0.01,0.00,VWS V14.01,2013-05-20 09:41:00,
2013-05-20 05:46:00,69.6,68.7,30.05,SSW,213,0.0,1.0,97,0.00,,---,0.01,0.00,VWS V14.01,2013-05-20 09:46:00,
2013-05-20 05:52:00,69.7,68.8,30.06,SSW,213,0.0,0.0,97,0.00,,---,0.01,0.00,VWS V14.01,2013-05-20 09:52:00,
2013-05-20 05:57:00,69.8,68.9,30.06,SSW,213,0.0,2.0,97,0.00,,---,0.01,0.00,VWS V14.01,2013-05-20 09:57:00,
2013-05-20 06:02:00,69.8,68.9,30.06,SSW,213,0.0,0.0,97,0.00,,---,0.01,0.00,VWS V14.01,2013-05-20 10:02:00,
2013-05-20 06:07:00,69.8,68.9,30.06,SSW,213,0.0,0.0,97,0.00,,---,0.01,0.00,VWS V14.01,2013-05-20 10:07:00,
2013-05-20 06:12:00,69.8,68.9,30.06,SSW,213,0.0,0.0,97,0.00,,---,0.01,0.00,VWS V14.01,2013-05-20 10:12:00,
2013-05-20 06:17:00,69.9,69.0,30.07,SSW,213,0.0,0.0,97,0.00,,---,0.01,0.00,VWS V14.01,2013-05-20 10:17:00,
2013-05-20 06:22:00,69.9,69.0,30.07,SSW,213,1.0,2.0,97,0.00,,---,0.01,0.00,VWS V14.01,2013-05-20 10:22:00,
2013-05-20 06:27:00,69.9,69.0,30.07,SSW,213,0.0,1.0,97,0.00,,---,0.01,0.00,VWS V14.01,2013-05-20 10:27:00,
2013-05-20 06:32:00,69.9,69.0,30.07,SSW,213,0.0,0.0,97,0.00,,---,0.01,7.00,VWS V14.01,2013-05-20 10:32:00,
2013-05-20 06:37:00,69.9,69.0,30.08,SSW,213,0.0,1.0,97,0.00,,---,0.01,11.00,VWS V14.01,2013-05-20 10:37:00,
2013-05-20 06:43:00,69.9,69.0,30.07,SSW,213,0.0,2.0,97,0.00,,---,0.01,16.00,VWS V14.01,2013-05-20 10:43:00,
2013-05-20 06:48:00,69.9,69.0,30.07,SSW,213,0.0,0.0,97,0.00,,---,0.01,18.00,VWS V14.01,2013-05-20 10:48:00,
2013-05-20 06:53:00,70.0,69.1,30.07,SSW,213,0.0,0.0,97,0.00,,---,0.01,21.00,VWS V14.01,2013-05-20 10:53:00,
2013-05-20 06:58:00,70.1,69.2,30.07,SSW,213,0.0,0.0,97,0.00,,---,0.01,30.00,VWS V14.01,2013-05-20 10:58:00,
2013-05-20 07:03:00,70.1,69.2,30.08,SSW,213,0.0,0.0,97,0.00,,---,0.01,40.00,VWS V14.01,2013-05-20 11:03:00,
2013-05-20 07:08:00,70.2,69.3,30.08,SSW,213,0.0,1.0,97,0.00,,---,0.01,54.00,VWS V14.01,2013-05-20 11:08:00,
2013-05-20 07:13:00,70.3,69.4,30.08,SSW,213,0.0,0.0,97,0.00,,---,0.01,62.00,VWS V14.01,2013-05-20 11:13:00,
2013-05-20 07:18:00,70.4,69.5,30.08,SSW,213,0.0,2.0,97,0.00,,---,0.01,69.00,VWS V14.01,2013-05-20 11:18:00,
2013-05-20 07:23:00,70.5,69.6,30.08,SSW,207,0.0,0.0,97,0.00,,---,0.01,70.00,VWS V14.01,2013-05-20 11:23:00,
2013-05-20 07:28:00,70.6,69.7,30.09,SSW,213,0.0,0.0,97,0.00,,---,0.01,74.00,VWS V14.01,2013-05-20 11:28:00,
2013-05-20 07:33:00,70.6,69.7,30.09,SSW,213,0.0,0.0,97,0.00,,---,0.01,51.00,VWS V14.01,2013-05-20 11:33:00,
2013-05-20 07:38:00,70.7,69.8,30.09,SSW,213,0.0,3.0,97,0.00,,---,0.01,53.00,VWS V14.01,2013-05-20 11:38:00,
2013-05-20 07:43:00,70.8,69.9,30.09,SSW,213,0.0,0.0,97,0.00,,---,0.01,51.00,VWS V14.01,2013-05-20 11:43:00,
2013-05-20 07:48:00,70.8,69.9,30.09,SSW,213,0.0,0.0,97,0.00,,---,0.01,65.00,VWS V14.01,2013-05-20 11:48:00,
2013-05-20 07:54:00,71.0,70.1,30.09,SSW,213,0.0,0.0,97,0.00,,---,0.01,74.00,VWS V14.01,2013-05-20 11:54:00,
2013-05-20 07:59:00,70.9,69.7,30.09,SSW,213,0.0,0.0,96,0.00,,---,0.01,84.00,VWS V14.01,2013-05-20 11:59:00,
2013-05-20 08:04:00,71.1,70.2,30.09,SSW,213,0.0,0.0,97,0.00,,---,0.01,91.00,VWS V14.01,2013-05-20 12:04:00,
2013-05-20 08:09:00,71.2,70.0,30.09,SSW,213,0.0,0.0,96,0.00,,---,0.01,74.00,VWS V14.01,2013-05-20 12:09:00,
2013-05-20 08:14:00,71.3,70.1,30.09,SSW,213,0.0,0.0,96,0.00,,---,0.01,121.00,VWS V14.01,2013-05-20 12:14:00,
2013-05-20 08:19:00,71.4,70.2,30.09,SSW,213,0.0,1.0,96,0.00,,---,0.01,130.00,VWS V14.01,2013-05-20 12:19:00,
2013-05-20 08:24:00,71.6,70.4,30.09,SSW,213,0.0,0.0,96,0.00,,---,0.01,121.00,VWS V14.01,2013-05-20 12:24:00,
2013-05-20 08:29:00,71.9,70.7,30.09,SSW,213,0.0,0.0,96,0.00,,---,0.01,132.00,VWS V14.01,2013-05-20 12:29:00,
2013-05-20 08:34:00,72.1,70.9,30.09,SW,215,0.0,0.0,96,0.00,,---,0.01,163.00,VWS V14.01,2013-05-20 12:34:00,
2013-05-20 08:39:00,72.1,70.6,30.09,SW,215,1.0,1.0,95,0.00,,---,0.01,160.00,VWS V14.01,2013-05-20 12:39:00,
2013-05-20 08:44:00,72.2,70.7,30.10,SW,215,0.0,0.0,95,0.00,,---,0.01,169.00,VWS V14.01,2013-05-20 12:44:00,
2013-05-20 08:49:00,72.5,71.0,30.10,SW,215,3.0,4.0,95,0.00,,---,0.01,132.00,VWS V14.01,2013-05-20 12:49:00,
2013-05-20 08:55:00,72.4,70.9,30.10,SW,215,0.0,1.0,95,0.00,,---,0.01,139.00,VWS V14.01,2013-05-20 12:55:00,
2013-05-20 09:00:00,72.6,71.1,30.10,SW,215,5.0,5.0,95,0.00,,---,0.01,169.00,VWS V14.01,2013-05-20 13:00:00,
2013-05-20 09:05:00,72.7,70.9,30.10,SW,215,1.0,4.0,94,0.00,,---,0.01,220.00,VWS V14.01,2013-05-20 13:05:00,
2013-05-20 09:10:00,72.8,71.0,30.10,SW,216,6.0,7.0,94,0.00,,---,0.01,243.00,VWS V14.01,2013-05-20 13:10:00,
2013-05-20 09:15:00,72.8,70.7,30.11,SW,216,4.0,6.0,93,0.00,,---,0.01,258.00,VWS V14.01,2013-05-20 13:15:00,
2013-05-20 09:20:00,73.1,71.3,30.10,SW,216,4.0,4.0,94,0.00,,---,0.01,276.00,VWS V14.01,2013-05-20 13:20:00,
2013-05-20 09:25:00,73.3,70.8,30.10,SW,216,3.0,4.0,92,0.00,,---,0.01,294.00,VWS V14.01,2013-05-20 13:25:00,
2013-05-20 09:30:00,73.5,71.4,30.10,SW,216,2.0,4.0,93,0.00,,---,0.01,309.00,VWS V14.01,2013-05-20 13:30:00,
2013-05-20 09:35:00,73.7,70.9,30.10,SW,216,0.0,4.0,91,0.00,,---,0.01,278.00,VWS V14.01,2013-05-20 13:35:00,
2013-05-20 09:40:00,73.9,71.4,30.10,SW,216,0.0,3.0,92,0.00,,---,0.01,329.00,VWS V14.01,2013-05-20 13:40:00,
2013-05-20 09:45:00,74.0,70.9,30.10,SW,216,2.0,4.0,90,0.00,,---,0.01,220.00,VWS V14.01,2013-05-20 13:45:00,
2013-05-20 09:50:00,74.1,71.3,30.10,SW,217,5.0,5.0,91,0.00,,---,0.01,230.00,VWS V14.01,2013-05-20 13:50:00,
2013-05-20 09:55:00,74.2,71.4,30.10,SW,219,3.0,6.0,91,0.00,,---,0.01,260.00,VWS V14.01,2013-05-20 13:55:00,
2013-05-20 10:01:00,74.6,71.5,30.10,SW,219,0.0,1.0,90,0.00,,---,0.01,329.00,VWS V14.01,2013-05-20 14:01:00,
2013-05-20 10:06:00,74.7,70.9,30.10,SW,219,3.0,6.0,88,0.00,,---,0.01,207.00,VWS V14.01,2013-05-20 14:06:00,
2013-05-20 10:11:00,74.9,71.1,30.10,SW,225,3.0,7.0,88,0.00,,---,0.01,397.00,VWS V14.01,2013-05-20 14:11:00,
2013-05-20 10:16:00,75.3,71.5,30.10,SW,225,8.0,8.0,88,0.00,,---,0.01,334.00,VWS V14.01,2013-05-20 14:16:00,
2013-05-20 10:21:00,75.5,71.4,30.10,SW,219,4.0,6.0,87,0.00,,---,0.01,281.00,VWS V14.01,2013-05-20 14:21:00,
2013-05-20 10:26:00,75.8,71.0,30.10,SW,215,5.0,8.0,85,0.00,,---,0.01,367.00,VWS V14.01,2013-05-20 14:26:00,
2013-05-20 10:31:00,75.7,70.5,30.10,SW,215,1.0,6.0,84,0.00,,---,0.01,269.00,VWS V14.01,2013-05-20 14:31:00,
2013-05-20 10:36:00,76.0,71.2,30.10,SW,220,3.0,7.0,85,0.00,,---,0.01,279.00,VWS V14.01,2013-05-20 14:36:00,
2013-05-20 10:41:00,76.1,70.6,30.10,SW,217,3.0,6.0,83,0.00,,---,0.01,278.00,VWS V14.01,2013-05-20 14:41:00,
2013-05-20 10:46:00,76.2,70.7,30.10,SSW,212,0.0,5.0,83,0.00,,---,0.01,306.00,VWS V14.01,2013-05-20 14:46:00,
2013-05-20 10:51:00,76.3,71.1,30.10,SSW,213,5.0,7.0,84,0.00,,---,0.01,225.00,VWS V14.01,2013-05-20 14:51:00,
2013-05-20 10:56:00,76.3,71.1,30.10,SSW,212,0.0,4.0,84,0.00,,---,0.01,267.00,VWS V14.01,2013-05-20 14:56:00,
2013-05-20 11:01:00,76.5,71.3,30.10,SSW,213,1.0,4.0,84,0.00,,---,0.01,343.00,VWS V14.01,2013-05-20 15:01:00,
2013-05-20 11:06:00,76.6,70.7,30.10,SW,215,0.0,6.0,82,0.00,,---,0.01,396.00,VWS V14.01,2013-05-20 15:06:00,
2013-05-20 11:12:00,77.0,71.1,30.09,SW,217,0.0,6.0,82,0.00,,---,0.01,492.00,VWS V14.01,2013-05-20 15:12:00,
2013-05-20 11:17:00,77.3,70.7,30.09,SW,217,4.0,6.0,80,0.00,,---,0.01,411.00,VWS V14.01,2013-05-20 15:17:00,
2013-05-20 11:22:00,77.4,70.8,30.10,SW,229,2.0,7.0,80,0.00,,---,0.01,339.00,VWS V14.01,2013-05-20 15:22:00,
2013-05-20 11:27:00,77.4,71.1,30.10,SW,229,4.0,7.0,81,0.00,,---,0.01,294.00,VWS V14.01,2013-05-20 15:27:00,
2013-05-20 11:32:00,77.5,70.5,30.10,SW,227,0.0,6.0,79,0.00,,---,0.01,357.00,VWS V14.01,2013-05-20 15:32:00,
2013-05-20 11:37:00,77.7,71.0,30.10,SW,227,0.0,6.0,80,0.00,,---,0.01,404.00,VWS V14.01,2013-05-20 15:37:00,
2013-05-20 11:42:00,78.0,70.6,30.09,WSW,242,4.0,8.0,78,0.00,,---,0.01,508.00,VWS V14.01,2013-05-20 15:42:00,
2013-05-20 11:47:00,78.1,71.4,30.10,WSW,242,0.0,5.0,80,0.00,,---,0.01,510.00,VWS V14.01,2013-05-20 15:47:00,
2013-05-20 11:52:00,78.4,71.3,30.10,SW,229,8.0,8.0,79,0.00,,---,0.01,519.00,VWS V14.01,2013-05-20 15:52:00,
2013-05-20 11:57:00,78.2,71.5,30.10,SW,236,0.0,1.0,80,0.00,,---,0.01,555.00,VWS V14.01,2013-05-20 15:57:00,
2013-05-20 12:02:00,79.0,71.6,30.09,WSW,240,0.0,5.0,78,0.00,,---,0.01,671.00,VWS V14.01,2013-05-20 16:02:00,
2013-05-20 12:07:00,79.2,71.0,30.09,WSW,244,4.0,6.0,76,0.00,,---,0.01,519.00,VWS V14.01,2013-05-20 16:07:00,
2013-05-20 12:12:00,79.3,70.7,30.09,WSW,248,0.0,7.0,75,0.00,,---,0.01,545.00,VWS V14.01,2013-05-20 16:12:00,
2013-05-20 12:17:00,79.6,71.4,30.09,WSW,257,5.0,7.0,76,0.00,,---,0.01,756.00,VWS V14.01,2013-05-20 16:17:00,
2013-05-20 12:23:00,79.7,71.9,30.09,WSW,258,0.0,7.0,77,0.00,,---,0.01,522.00,VWS V14.01,2013-05-20 16:23:00,
2013-05-20 12:28:00,79.6,71.0,30.09,WSW,253,0.0,7.0,75,0.00,,---,0.01,459.00,VWS V14.01,2013-05-20 16:28:00,
2013-05-20 12:33:00,79.5,70.9,30.08,WSW,254,0.0,7.0,75,0.00,,---,0.01,492.00,VWS V14.01,2013-05-20 16:33:00,
2013-05-20 12:38:00,79.6,71.8,30.08,WSW,253,0.0,5.0,77,0.00,,---,0.01,742.00,VWS V14.01,2013-05-20 16:38:00,
2013-05-20 12:43:00,80.0,71.4,30.09,WSW,250,0.0,9.0,75,0.00,,---,0.01,462.00,VWS V14.01,2013-05-20 16:43:00,
2013-05-20 12:48:00,79.7,71.1,30.08,WSW,250,2.0,8.0,75,0.00,,---,0.01,478.00,VWS V14.01,2013-05-20 16:48:00,
2013-05-20 12:53:00,80.0,71.0,30.08,WSW,250,0.0,4.0,74,0.00,,---,0.01,478.00,VWS V14.01,2013-05-20 16:53:00,
2013-05-20 12:58:00,80.8,71.3,30.08,WSW,250,0.0,4.0,73,0.00,,---,0.01,598.00,VWS V14.01,2013-05-20 16:58:00,
2013-05-20 13:03:00,80.7,71.2,30.08,SW,228,1.0,8.0,73,0.00,,---,0.01,1192.00,VWS V14.01,2013-05-20 17:03:00,
2013-05-20 13:08:00,81.4,71.1,30.08,SW,226,0.0,4.0,71,0.00,,---,0.01,478.00,VWS V14.01,2013-05-20 17:08:00,
2013-05-20 13:13:00,81.6,72.5,30.08,SSW,208,0.0,4.0,74,0.00,,---,0.01,550.00,VWS V14.01,2013-05-20 17:13:00,
2013-05-20 13:18:00,81.8,72.3,30.08,West,270,4.0,7.0,73,0.00,,---,0.01,445.00,VWS V14.01,2013-05-20 17:18:00,
2013-05-20 13:23:00,81.2,71.7,30.08,West,271,1.0,4.0,73,0.00,,---,0.01,515.00,VWS V14.01,2013-05-20 17:23:00,
2013-05-20 13:28:00,81.5,72.8,30.08,West,271,1.0,4.0,75,0.00,,---,0.01,1011.00,VWS V14.01,2013-05-20 17:28:00,
2013-05-20 13:33:00,81.9,71.6,30.08,West,271,0.0,4.0,71,0.00,,---,0.01,524.00,VWS V14.01,2013-05-20 17:33:00,
2013-05-20 13:38:00,81.7,71.4,30.08,West,271,0.0,6.0,71,0.00,,---,0.01,441.00,VWS V14.01,2013-05-20 17:38:00,
2013-05-20 13:43:00,81.7,72.6,30.07,West,271,0.0,4.0,74,0.00,,---,0.01,564.00,VWS V14.01,2013-05-20 17:43:00,
2013-05-20 13:48:00,81.8,70.6,30.07,West,271,0.0,6.0,69,0.00,,---,0.01,529.00,VWS V14.01,2013-05-20 17:48:00,
2013-05-20 13:53:00,82.1,72.6,30.07,West,271,0.0,6.0,73,0.00,,---,0.01,629.00,VWS V14.01,2013-05-20 17:53:00,
2013-05-20 13:59:00,82.9,72.1,30.06,West,271,0.0,0.0,70,0.00,,---,0.01,554.00,VWS V14.01,2013-05-20 17:59:00,
2013-05-20 14:04:00,82.4,71.2,30.06,West,271,0.0,0.0,69,0.00,,---,0.01,459.00,VWS V14.01,2013-05-20 18:04:00,
2013-05-20 14:09:00,82.3,72.0,30.06,West,270,8.0,8.0,71,0.00,,---,0.01,568.00,VWS V14.01,2013-05-20 18:09:00,
2013-05-20 14:14:00,82.3,71.1,30.06,West,265,1.0,1.0,69,0.00,,---,0.01,540.00,VWS V14.01,2013-05-20 18:14:00,
2013-05-20 14:19:00,82.6,72.7,30.06,West,261,0.0,0.0,72,0.00,,---,0.01,605.00,VWS V14.01,2013-05-20 18:19:00,
2013-05-20 14:24:00,82.7,71.5,30.06,West,259,2.0,2.0,69,0.00,,---,0.01,531.00,VWS V14.01,2013-05-20 18:24:00,
2013-05-20 14:29:00,82.7,72.3,30.06,WSW,254,0.0,3.0,71,0.00,,---,0.01,578.00,VWS V14.01,2013-05-20 18:29:00,
2013-05-20 14:34:00,83.0,72.2,30.06,WSW,254,0.0,0.0,70,0.00,,---,0.01,504.00,VWS V14.01,2013-05-20 18:34:00,
2013-05-20 14:39:00,83.0,71.8,30.06,WSW,254,0.0,0.0,69,0.00,,---,0.01,642.00,VWS V14.01,2013-05-20 18:39:00,
2013-05-20 14:44:00,83.4,72.2,30.06,West,267,0.0,7.0,69,0.00,,---,0.01,1106.00,VWS V14.01,2013-05-20 18:44:00,
2013-05-20 14:50:00,83.7,72.0,30.06,WNW,287,0.0,1.0,68,0.00,,---,0.01,951.00,VWS V14.01,2013-05-20 18:50:00,
2013-05-20 14:55:00,84.6,72.4,30.05,WNW,288,0.0,0.0,67,0.00,,---,0.01,1121.00,VWS V14.01,2013-05-20 18:55:00,
2013-05-20 15:00:00,84.6,72.0,30.05,WNW,302,0.0,3.0,66,0.00,,---,0.01,606.00,VWS V14.01,2013-05-20 19:00:00,
2013-05-20 15:05:00,84.2,71.6,30.04,West,261,3.0,3.0,66,0.00,,---,0.01,997.00,VWS V14.01,2013-05-20 19:05:00,
2013-05-20 15:10:00,85.1,72.5,30.04,West,279,6.0,8.0,66,0.00,,---,0.01,939.00,VWS V14.01,2013-05-20 19:10:00,
2013-05-20 15:15:00,85.5,71.0,30.04,West,279,0.0,4.0,62,0.00,,---,0.01,998.00,VWS V14.01,2013-05-20 19:15:00,
2013-05-20 15:20:00,85.4,70.9,30.04,WNW,282,3.0,8.0,62,0.00,,---,0.01,983.00,VWS V14.01,2013-05-20 19:20:00,
2013-05-20 15:25:00,84.7,72.1,30.04,West,259,6.0,7.0,66,0.00,,---,0.01,410.00,VWS V14.01,2013-05-20 19:25:00,
2013-05-20 15:30:00,84.7,72.1,30.04,WSW,246,0.0,4.0,66,0.00,,---,0.01,888.00,VWS V14.01,2013-05-20 19:30:00,
2013-05-20 15:36:00,84.8,71.3,30.04,West,264,8.0,9.0,64,0.00,,---,0.01,860.00,VWS V14.01,2013-05-20 19:36:00,
2013-05-20 15:41:00,85.6,71.1,30.04,West,267,2.0,8.0,62,0.00,,---,0.01,795.00,VWS V14.01,2013-05-20 19:41:00,
2013-05-20 15:46:00,84.7,70.2,30.03,West,269,0.0,6.0,62,0.00,,---,0.01,369.00,VWS V14.01,2013-05-20 19:46:00,
2013-05-20 15:51:00,84.3,70.3,30.03,West,269,0.0,3.0,63,0.00,,---,0.01,313.00,VWS V14.01,2013-05-20 19:51:00,
2013-05-20 15:56:00,84.4,70.4,30.03,West,271,0.0,0.0,63,0.00,,---,0.01,452.00,VWS V14.01,2013-05-20 19:56:00,
2013-05-20 16:01:00,85.0,73.3,30.03,West,263,0.0,6.0,68,0.00,,---,0.01,742.00,VWS V14.01,2013-05-20 20:01:00,
2013-05-20 16:06:00,84.7,73.0,30.03,WSW,246,0.0,4.0,68,0.00,,---,0.01,355.00,VWS V14.01,2013-05-20 20:06:00,
2013-05-20 16:11:00,84.2,72.5,30.02,WSW,249,0.0,3.0,68,0.00,,---,0.01,267.00,VWS V14.01,2013-05-20 20:11:00,
2013-05-20 16:16:00,83.8,72.1,30.02,WSW,247,0.0,0.0,68,0.00,,---,0.01,287.00,VWS V14.01,2013-05-20 20:16:00,
2013-05-20 16:21:00,83.6,72.8,30.02,WSW,247,0.0,1.0,70,0.00,,---,0.01,315.00,VWS V14.01,2013-05-20 20:21:00,
2013-05-20 16:26:00,84.1,73.3,30.02,WSW,248,0.0,5.0,70,0.00,,---,0.01,406.00,VWS V14.01,2013-05-20 20:26:00,
2013-05-20 16:31:00,83.9,72.7,30.02,WSW,252,0.0,5.0,69,0.00,,---,0.01,313.00,VWS V14.01,2013-05-20 20:31:00,
2013-05-20 16:37:00,83.2,72.8,30.02,SW,236,0.0,4.0,71,0.00,,---,0.01,313.00,VWS V14.01,2013-05-20 20:37:00,
2013-05-20 16:42:00,83.3,72.5,30.01,SSW,206,0.0,4.0,70,0.00,,---,0.01,675.00,VWS V14.01,2013-05-20 20:42:00,
2013-05-20 16:47:00,83.6,73.2,30.01,SSW,205,0.0,4.0,71,0.00,,---,0.01,735.00,VWS V14.01,2013-05-20 20:47:00,
2013-05-20 16:52:00,83.4,72.6,30.01,SSW,204,2.0,3.0,70,0.00,,---,0.01,338.00,VWS V14.01,2013-05-20 20:52:00,
2013-05-20 16:57:00,83.3,73.3,30.01,SSW,202,0.0,3.0,72,0.00,,---,0.01,346.00,VWS V14.01,2013-05-20 20:57:00,
2013-05-20 17:02:00,83.4,73.0,30.01,SSW,200,0.0,4.0,71,0.00,,---,0.01,427.00,VWS V14.01,2013-05-20 21:02:00,
2013-05-20 17:07:00,83.5,73.1,30.01,SSW,194,0.0,2.0,71,0.00,,---,0.01,230.00,VWS V14.01,2013-05-20 21:07:00,
2013-05-20 17:12:00,83.1,72.7,30.01,SSW,193,3.0,3.0,71,0.00,,---,0.01,214.00,VWS V14.01,2013-05-20 21:12:00,
2013-05-20 17:17:00,82.9,72.9,30.02,South,183,0.0,4.0,72,0.00,,---,0.01,229.00,VWS V14.01,2013-05-20 21:17:00,
2013-05-20 17:22:00,82.6,73.1,30.02,South,183,0.0,5.0,73,0.00,,---,0.01,274.00,VWS V14.01,2013-05-20 21:22:00,
2013-05-20 17:27:00,82.8,72.9,30.02,South,182,0.0,1.0,72,0.00,,---,0.01,330.00,VWS V14.01,2013-05-20 21:27:00,
2013-05-20 17:32:00,82.6,72.7,30.02,South,183,2.0,5.0,72,0.00,,---,0.01,345.00,VWS V14.01,2013-05-20 21:32:00,
2013-05-20 17:38:00,83.0,73.1,30.02,South,183,0.0,1.0,72,0.00,,---,0.01,534.00,VWS V14.01,2013-05-20 21:38:00,
2013-05-20 17:43:00,83.5,72.7,30.02,South,180,0.0,5.0,70,0.00,,---,0.01,552.00,VWS V14.01,2013-05-20 21:43:00,
2013-05-20 17:48:00,83.8,73.4,30.02,South,179,1.0,3.0,71,0.00,,---,0.01,561.00,VWS V14.01,2013-05-20 21:48:00,
2013-05-20 17:53:00,83.5,72.3,30.02,South,179,0.0,5.0,69,0.00,,---,0.01,336.00,VWS V14.01,2013-05-20 21:53:00,
2013-05-20 17:58:00,83.8,73.4,30.02,South,177,0.0,4.0,71,0.00,,---,0.01,338.00,VWS V14.01,2013-05-20 21:58:00,
2013-05-20 18:03:00,83.8,72.6,30.01,South,177,1.0,7.0,69,0.00,,---,0.01,482.00,VWS V14.01,2013-05-20 22:03:00,
2013-05-20 18:08:00,83.8,72.6,30.01,South,177,0.0,4.0,69,0.00,,---,0.01,362.00,VWS V14.01,2013-05-20 22:08:00,
2013-05-20 18:13:00,83.4,72.2,30.02,South,177,0.0,3.0,69,0.00,,---,0.01,297.00,VWS V14.01,2013-05-20 22:13:00,
2013-05-20 18:18:00,83.2,72.4,30.02,South,177,0.0,3.0,70,0.00,,---,0.01,206.00,VWS V14.01,2013-05-20 22:18:00,
2013-05-20 18:23:00,82.9,72.5,30.02,South,177,1.0,3.0,71,0.00,,---,0.01,185.00,VWS V14.01,2013-05-20 22:23:00,
2013-05-20 18:28:00,82.2,72.3,30.01,South,175,0.0,7.0,72,0.00,,---,0.01,169.00,VWS V14.01,2013-05-20 22:28:00,
2013-05-20 18:33:00,81.9,72.0,30.02,South,175,0.0,4.0,72,0.00,,---,0.01,174.00,VWS V14.01,2013-05-20 22:33:00,
2013-05-20 18:38:00,81.8,72.7,30.02,South,175,0.0,1.0,74,0.00,,---,0.01,185.00,VWS V14.01,2013-05-20 22:38:00,
2013-05-20 18:43:00,81.6,72.1,30.02,South,175,0.0,4.0,73,0.00,,---,0.01,220.00,VWS V14.01,2013-05-20 22:43:00,
2013-05-20 18:48:00,81.3,71.8,30.02,South,175,0.0,6.0,73,0.00,,---,0.01,199.00,VWS V14.01,2013-05-20 22:48:00,
2013-05-20 18:53:00,81.2,72.1,30.02,South,175,0.0,5.0,74,0.00,,---,0.01,190.00,VWS V14.01,2013-05-20 22:53:00,
2013-05-20 18:58:00,81.2,72.5,30.02,South,169,2.0,3.0,75,0.00,,---,0.01,179.00,VWS V14.01,2013-05-20 22:58:00,
2013-05-20 19:03:00,81.0,72.7,30.02,South,175,0.0,6.0,76,0.00,,---,0.01,156.00,VWS V14.01,2013-05-20 23:03:00,
2013-05-20 19:08:00,80.5,72.6,30.02,South,175,0.0,6.0,77,0.00,,---,0.01,139.00,VWS V14.01,2013-05-20 23:08:00,
2013-05-20 19:14:00,80.0,72.5,30.02,South,175,0.0,0.0,78,0.00,,---,0.01,123.00,VWS V14.01,2013-05-20 23:14:00,
2013-05-20 19:19:00,79.7,72.2,30.02,South,175,2.0,2.0,78,0.00,,---,0.01,111.00,VWS V14.01,2013-05-20 23:19:00,
2013-05-20 19:24:00,79.4,71.9,30.02,South,175,0.0,0.0,78,0.00,,---,0.01,95.00,VWS V14.01,2013-05-20 23:24:00,
2013-05-20 19:29:00,78.9,71.8,30.02,South,175,0.0,1.0,79,0.00,,---,0.01,79.00,VWS V14.01,2013-05-20 23:29:00,
2013-05-20 19:34:00,78.6,71.2,30.03,SSE,163,6.0,6.0,78,0.00,,---,0.01,67.00,VWS V14.01,2013-05-20 23:34:00,
2013-05-20 19:39:00,77.6,70.2,30.02,SE,131,0.0,1.0,78,0.00,,---,0.01,58.00,VWS V14.01,2013-05-20 23:39:00,
2013-05-20 19:44:00,77.0,70.0,30.03,SE,130,0.0,0.0,79,0.00,,---,0.01,51.00,VWS V14.01,2013-05-20 23:44:00,
2013-05-20 19:49:00,76.7,69.7,30.03,ESE,109,3.0,6.0,79,0.00,,---,0.01,42.00,VWS V14.01,2013-05-20 23:49:00,
2013-05-20 19:54:00,76.3,69.7,30.03,ESE,117,6.0,8.0,80,0.00,,---,0.01,30.00,VWS V14.01,2013-05-20 23:54:00,
2013-05-20 19:59:00,75.9,69.7,30.02,ESE,117,0.0,0.0,81,0.00,,---,0.01,21.00,VWS V14.01,2013-05-20 23:59:00,
2013-05-20 20:04:00,75.6,69.7,30.03,ESE,117,4.0,4.0,82,0.00,,---,0.01,14.00,VWS V14.01,2013-05-21 00:04:00,
2013-05-20 20:09:00,75.3,69.8,30.03,ESE,120,0.0,8.0,83,0.00,,---,0.01,9.00,VWS V14.01,2013-05-21 00:09:00,
2013-05-20 20:15:00,75.0,69.5,30.03,ESE,121,0.0,0.0,83,0.00,,---,0.01,7.00,VWS V14.01,2013-05-21 00:15:00,
2013-05-20 20:20:00,74.7,69.6,30.03,ESE,123,0.0,3.0,84,0.00,,---,0.01,0.00,VWS V14.01,2013-05-21 00:20:00,
2013-05-20 20:25:00,74.4,69.3,30.03,SE,124,3.0,4.0,84,0.00,,---,0.01,0.00,VWS V14.01,2013-05-21 00:25:00,
2013-05-20 20:30:00,74.1,68.6,30.03,SSW,213,0.0,3.0,83,0.00,,---,0.01,0.00,VWS V14.01,2013-05-21 00:30:00,
2013-05-20 20:35:00,73.9,68.4,30.04,SSW,211,0.0,1.0,83,0.00,,---,0.01,0.00,VWS V14.01,2013-05-21 00:35:00,
2013-05-20 20:40:00,73.6,68.1,30.03,SSW,206,0.0,5.0,83,0.00,,---,0.01,0.00,VWS V14.01,2013-05-21 00:40:00,
2013-05-20 20:45:00,73.4,67.9,30.04,SSW,206,0.0,0.0,83,0.00,,---,0.01,0.00,VWS V14.01,2013-05-21 00:45:00,
2013-05-20 20:50:00,73.2,67.7,30.04,SSW,206,2.0,3.0,83,0.00,,---,0.01,0.00,VWS V14.01,2013-05-21 00:50:00,
2013-05-20 20:55:00,72.9,67.8,30.04,SSW,204,0.0,4.0,84,0.00,,---,0.01,0.00,VWS V14.01,2013-05-21 00:55:00,
2013-05-20 21:00:00,72.7,67.6,30.04,SSW,204,0.0,1.0,84,0.00,,---,0.01,0.00,VWS V14.01,2013-05-21 01:00:00,
2013-05-20 21:05:00,72.5,67.4,30.04,SSW,204,0.0,2.0,84,0.00,,---,0.01,0.00,VWS V14.01,2013-05-21 01:05:00,
2013-05-20 21:10:00,72.3,67.5,30.04,SSW,204,0.0,4.0,85,0.00,,---,0.01,0.00,VWS V14.01,2013-05-21 01:10:00,
2013-05-20 21:16:00,72.2,67.4,30.04,SSW,204,0.0,2.0,85,0.00,,---,0.01,0.00,VWS V14.01,2013-05-21 01:16:00,
2013-05-20 21:21:00,72.0,67.2,30.04,SSW,204,0.0,0.0,85,0.00,,---,0.01,0.00,VWS V14.01,2013-05-21 01:21:00,
2013-05-20 21:26:00,71.9,67.2,30.05,SSW,204,0.0,3.0,85,0.00,,---,0.01,0.00,VWS V14.01,2013-05-21 01:26:00,
2013-05-20 21:31:00,71.8,67.1,30.05,SSW,204,0.0,2.0,85,0.00,,---,0.01,0.00,VWS V14.01,2013-05-21 01:31:00,
2013-05-20 21:36:00,71.6,66.9,30.05,SSW,204,5.0,5.0,85,0.00,,---,0.01,0.00,VWS V14.01,2013-05-21 01:36:00,
2013-05-20 21:41:00,71.5,66.8,30.05,SSW,204,0.0,0.0,85,0.00,,---,0.01,0.00,VWS V14.01,2013-05-21 01:41:00,
2013-05-20 21:46:00,71.4,66.7,30.04,SSW,204,0.0,4.0,85,0.00,,---,0.01,0.00,VWS V14.01,2013-05-21 01:46:00,
2013-05-20 21:51:00,71.2,66.5,30.04,SSW,204,0.0,3.0,85,0.00,,---,0.01,0.00,VWS V14.01,2013-05-21 01:51:00,
2013-05-20 21:56:00,71.0,66.6,30.03,SSW,204,4.0,6.0,86,0.00,,---,0.01,0.00,VWS V14.01,2013-05-21 01:56:00,
2013-05-20 22:01:00,70.9,66.5,30.03,SSW,213,3.0,7.0,86,0.00,,---,0.01,0.00,VWS V14.01,2013-05-21 02:01:00,
2013-05-20 22:06:00,70.9,66.5,30.04,SSW,207,2.0,3.0,86,0.00,,---,0.01,0.00,VWS V14.01,2013-05-21 02:06:00,
2013-05-20 22:11:00,71.0,66.6,30.04,SSW,207,0.0,0.0,86,0.00,,---,0.01,0.00,VWS V14.01,2013-05-21 02:11:00,
2013-05-20 22:16:00,71.1,66.7,30.04,SSW,205,0.0,6.0,86,0.00,,---,0.01,0.00,VWS V14.01,2013-05-21 02:16:00,
2013-05-20 22:21:00,71.1,66.7,30.04,SSW,205,0.0,0.0,86,0.00,,---,0.01,0.00,VWS V14.01,2013-05-21 02:21:00,
2013-05-20 22:26:00,71.1,66.7,30.04,SSW,205,0.0,0.0,86,0.00,,---,0.01,0.00,VWS V14.01,2013-05-21 02:26:00,
2013-05-20 22:32:00,71.1,67.0,30.04,SSW,205,0.0,2.0,87,0.00,,---,0.01,0.00,VWS V14.01,2013-05-21 02:32:00,
2013-05-20 22:37:00,71.0,66.9,30.04,SSW,205,0.0,0.0,87,0.00,,---,0.01,0.00,VWS V14.01,2013-05-21 02:37:00,
2013-05-20 22:42:00,70.9,66.8,30.04,SSW,205,0.0,0.0,87,0.00,,---,0.01,0.00,VWS V14.01,2013-05-21 02:42:00,
2013-05-20 22:47:00,70.8,67.1,30.04,SSW,205,0.0,0.0,88,0.00,,---,0.01,0.00,VWS V14.01,2013-05-21 02:47:00,
2013-05-20 22:52:00,70.7,67.0,30.04,SSW,205,0.0,0.0,88,0.00,,---,0.01,0.00,VWS V14.01,2013-05-21 02:52:00,
2013-05-20 22:57:00,70.6,66.9,30.04,SSW,205,0.0,1.0,88,0.00,,---,0.01,0.00,VWS V14.01,2013-05-21 02:57:00,
2013-05-20 23:02:00,70.6,67.2,30.05,SSW,205,0.0,0.0,89,0.00,,---,0.01,0.00,VWS V14.01,2013-05-21 03:02:00,
2013-05-20 23:07:00,70.4,67.0,30.04,SSW,205,0.0,0.0,89,0.00,,---,0.01,0.00,VWS V14.01,2013-05-21 03:07:00,
2013-05-20 23:12:00,70.1,66.7,30.05,SSW,205,0.0,0.0,89,0.00,,---,0.01,0.00,VWS V14.01,2013-05-21 03:12:00,
2013-05-20 23:17:00,69.9,66.8,30.04,SSW,205,0.0,0.0,90,0.00,,---,0.01,0.00,VWS V14.01,2013-05-21 03:17:00,
2013-05-20 23:22:00,69.8,66.7,30.04,SSW,205,0.0,0.0,90,0.00,,---,0.01,0.00,VWS V14.01,2013-05-21 03:22:00,
2013-05-20 23:27:00,69.7,66.6,30.04,SSW,205,0.0,0.0,90,0.00,,---,0.01,0.00,VWS V14.01,2013-05-21 03:27:00,
2013-05-20 23:32:00,69.6,66.5,30.04,SSW,205,0.0,0.0,90,0.00,,---,0.01,0.00,VWS V14.01,2013-05-21 03:32:00,
2013-05-20 23:37:00,69.4,66.3,30.04,SSW,205,0.0,0.0,90,0.00,,---,0.01,0.00,VWS V14.01,2013-05-21 03:37:00,
2013-05-20 23:42:00,69.1,66.4,30.04,SSW,205,0.0,0.0,91,0.00,,---,0.01,0.00,VWS V14.01,2013-05-21 03:42:00,
2013-05-20 23:48:00,68.9,66.2,30.04,SSW,205,0.0,0.0,91,0.00,,---,0.01,0.00,VWS V14.01,2013-05-21 03:48:00,
2013-05-20 23:53:00,68.7,66.3,30.03,SSW,205,0.0,0.0,92,0.00,,---,0.01,0.00,VWS V14.01,2013-05-21 03:53:00,
2013-05-20 23:58:00,68.6,66.2,30.04,SSW,205,0.0,0.0,92,0.00,,---,0.01,0.00,VWS V14.01,2013-05-21 03:58:00,